Time,TemperatureF,DewpointF,PressureIn,WindDirection,WindDirectionDegrees,WindSpeedMPH,WindSpeedGustMPH,Humidity,HourlyPrecipIn,Conditions,Clouds,dailyrainin,SoftwareType,DateUTC
2013-04-10 00:03:00,32.0,30.0,30.11,North,358,3.0,5.0,94,0.02,,,0.17,,2013-04-10 04:03:00,
2013-04-10 00:13:00,32.0,30.0,30.11,North,358,3.0,5.0,94,0.02,,,0.17,,2013-04-10 04:13:00,
2013-04-10 00:23:00,32.0,30.0,30.11,NNW,330,5.0,6.0,94,0.02,,,0.17,,2013-04-10 04:23:00,
2013-04-10 00:33:00,32.0,30.0,30.12,North,356,3.0,6.0,94,0.01,,,0.17,,2013-04-10 04:33:00,
2013-04-10 00:43:00,32.0,30.0,30.12,North,356,3.0,6.0,94,0.01,,,0.17,,2013-04-10 04:43:00,
2013-04-10 00:53:00,32.0,30.0,30.12,North,356,3.0,6.0,94,0.01,,,0.17,,2013-04-10 04:53:00,
2013-04-10 01:02:00,33.0,31.0,30.11,NNE,18,2.0,10.0,94,0.01,,,0.18,,2013-04-10 05:02:00,
2013-04-10 01:13:00,33.0,31.0,30.11,NNW,341,3.0,8.0,93,0.01,,,0.18,,2013-04-10 05:13:00,
2013-04-10 01:23:00,33.0,31.0,30.11,NNW,341,3.0,8.0,93,0.01,,,0.18,,2013-04-10 05:23:00,
2013-04-10 01:33:00,33.0,31.0,30.11,NNE,15,5.0,8.0,94,0.01,,,0.18,,2013-04-10 05:33:00,
2013-04-10 01:42:00,33.0,31.0,30.11,NNE,15,5.0,8.0,94,0.01,,,0.18,,2013-04-10 05:42:00,
2013-04-10 01:53:00,33.0,31.0,30.11,NNE,28,5.0,8.0,93,0.02,,,0.19,,2013-04-10 05:53:00,
2013-04-10 02:03:00,33.0,31.0,30.10,NNE,29,3.0,6.0,93,0.01,,,0.19,,2013-04-10 06:03:00,
2013-04-10 02:12:00,32.0,30.0,30.09,NNE,25,3.0,6.0,94,0.01,,,0.19,,2013-04-10 06:12:00,
2013-04-10 02:22:00,32.0,30.0,30.09,NNE,25,3.0,6.0,94,0.01,,,0.19,,2013-04-10 06:22:00,
2013-04-10 02:32:00,32.0,30.0,30.08,NNE,19,3.0,4.0,94,0.01,,,0.19,,2013-04-10 06:32:00,
2013-04-10 02:42:00,32.0,30.0,30.08,NNE,19,3.0,4.0,94,0.01,,,0.19,,2013-04-10 06:42:00,
2013-04-10 02:52:00,32.0,30.0,30.07,NNE,24,5.0,6.0,94,0.01,,,0.19,,2013-04-10 06:52:00,
2013-04-10 03:02:00,32.0,30.0,30.07,North,1,2.0,7.0,94,0.00,,,0.19,,2013-04-10 07:02:00,
2013-04-10 03:12:00,32.0,30.0,30.07,North,1,2.0,7.0,94,0.00,,,0.19,,2013-04-10 07:12:00,
2013-04-10 03:22:00,32.0,30.0,30.08,North,1,2.0,4.0,94,0.00,,,0.19,,2013-04-10 07:22:00,
2013-04-10 03:32:00,32.0,30.0,30.09,North,1,1.0,3.0,94,0.00,,,0.19,,2013-04-10 07:32:00,
2013-04-10 03:42:00,32.0,30.0,30.09,North,1,1.0,3.0,94,0.00,,,0.19,,2013-04-10 07:42:00,
2013-04-10 03:52:00,32.0,30.0,30.10,NNW,346,4.0,6.0,94,0.00,,,0.19,,2013-04-10 07:52:00,
2013-04-10 04:02:00,33.0,32.0,30.11,North,357,5.0,5.0,95,0.00,,,0.18,,2013-04-10 08:02:00,
2013-04-10 04:12:00,33.0,32.0,30.11,North,357,5.0,5.0,95,0.00,,,0.18,,2013-04-10 08:12:00,
2013-04-10 04:22:00,33.0,31.0,30.14,NNW,347,0.0,6.0,94,0.00,,,0.18,,2013-04-10 08:22:00,
2013-04-10 04:32:00,33.0,31.0,30.14,NNW,347,3.0,4.0,94,0.00,,,0.18,,2013-04-10 08:32:00,
2013-04-10 04:42:00,33.0,31.0,30.14,NNW,347,3.0,4.0,94,0.00,,,0.18,,2013-04-10 08:42:00,
2013-04-10 04:52:00,33.0,32.0,30.14,NNW,347,2.0,3.0,95,0.00,,,0.18,,2013-04-10 08:52:00,
2013-04-10 05:02:00,33.0,31.0,30.14,NNW,347,3.0,4.0,94,0.00,,,0.18,,2013-04-10 09:02:00,
2013-04-10 05:12:00,33.0,32.0,30.13,NNW,347,3.0,5.0,95,0.00,,,0.18,,2013-04-10 09:12:00,
2013-04-10 05:22:00,33.0,32.0,30.13,NNW,347,3.0,5.0,95,0.00,,,0.18,,2013-04-10 09:22:00,
2013-04-10 05:32:00,32.0,31.0,30.12,NNW,347,3.0,4.0,95,0.00,,,0.18,,2013-04-10 09:32:00,
2013-04-10 05:43:00,32.0,31.0,30.12,NNW,347,3.0,4.0,95,0.00,,,0.18,,2013-04-10 09:43:00,
2013-04-10 05:53:00,32.0,31.0,30.11,North,2,3.0,4.0,95,0.00,,,0.18,,2013-04-10 09:53:00,
2013-04-10 06:03:00,32.0,31.0,30.10,North,4,3.0,6.0,95,0.00,,,0.18,,2013-04-10 10:03:00,
2013-04-10 06:13:00,32.0,31.0,30.10,NNE,22,3.0,6.0,95,0.00,,,0.18,,2013-04-10 10:13:00,
2013-04-10 06:23:00,32.0,31.0,30.10,NNE,22,3.0,6.0,95,0.00,,,0.18,,2013-04-10 10:23:00,
2013-04-10 06:33:00,32.0,31.0,30.10,North,4,0.0,3.0,96,0.00,,,0.18,,2013-04-10 10:33:00,
2013-04-10 06:43:00,32.0,31.0,30.10,North,4,0.0,3.0,96,0.00,,,0.18,,2013-04-10 10:43:00,
2013-04-10 06:52:00,32.0,31.0,30.11,North,4,3.0,3.0,96,0.00,,,0.18,,2013-04-10 10:52:00,
2013-04-10 07:03:00,32.0,31.0,30.10,North,4,2.0,3.0,96,0.00,,,0.18,,2013-04-10 11:03:00,
2013-04-10 07:12:00,32.0,31.0,30.10,North,4,2.0,3.0,96,0.00,,,0.18,,2013-04-10 11:12:00,
2013-04-10 07:22:00,32.0,31.0,30.10,NNE,20,4.0,5.0,96,0.00,,,0.18,,2013-04-10 11:22:00,
2013-04-10 07:32:00,32.0,31.0,30.10,NNE,20,4.0,5.0,96,0.00,,,0.18,,2013-04-10 11:32:00,
2013-04-10 07:42:00,32.0,31.0,30.10,NNE,20,4.0,5.0,96,0.00,,,0.18,,2013-04-10 11:42:00,
2013-04-10 07:53:00,32.0,31.0,30.08,NE,56,4.0,7.0,97,0.00,,,0.18,,2013-04-10 11:53:00,
2013-04-10 08:03:00,32.0,31.0,30.07,East,84,3.0,8.0,97,0.00,,,0.18,,2013-04-10 12:03:00,
2013-04-10 08:12:00,32.0,31.0,30.07,East,84,3.0,8.0,97,0.00,,,0.18,,2013-04-10 12:12:00,
2013-04-10 08:23:00,32.0,31.0,30.08,NE,43,7.0,12.0,95,0.00,,,0.18,,2013-04-10 12:23:00,
2013-04-10 08:33:00,32.0,30.0,30.09,NE,49,2.0,6.0,94,0.00,,,0.18,,2013-04-10 12:33:00,
2013-04-10 08:42:00,32.0,30.0,30.09,NE,49,2.0,6.0,94,0.00,,,0.18,,2013-04-10 12:42:00,
2013-04-10 08:52:00,32.0,30.0,30.07,NNE,33,7.0,8.0,93,0.00,,,0.18,,2013-04-10 12:52:00,
2013-04-10 09:02:00,32.0,30.0,30.06,NNE,32,7.0,11.0,93,0.00,,,0.18,,2013-04-10 13:02:00,
2013-04-10 09:12:00,32.0,30.0,30.06,NNE,32,7.0,11.0,93,0.00,,,0.18,,2013-04-10 13:12:00,
2013-04-10 09:23:00,32.0,30.0,30.09,NNE,32,6.0,10.0,93,0.00,,,0.18,,2013-04-10 13:23:00,
2013-04-10 09:32:00,32.0,30.0,30.10,NE,55,2.0,6.0,93,0.00,,,0.18,,2013-04-10 13:32:00,
2013-04-10 09:43:00,32.0,30.0,30.10,NE,55,2.0,6.0,93,0.00,,,0.18,,2013-04-10 13:43:00,
2013-04-10 09:53:00,32.0,30.0,30.12,NE,42,2.0,7.0,93,0.00,,,0.18,,2013-04-10 13:53:00,
2013-04-10 10:02:00,32.0,30.0,30.13,NE,39,2.0,5.0,94,0.00,,,0.18,,2013-04-10 14:02:00,
2013-04-10 10:12:00,32.0,30.0,30.13,NE,39,2.0,5.0,94,0.00,,,0.18,,2013-04-10 14:12:00,
2013-04-10 10:22:00,32.0,30.0,30.14,NNE,12,3.0,5.0,94,0.00,,,0.18,,2013-04-10 14:22:00,
2013-04-10 10:33:00,33.0,31.0,30.13,NNE,18,3.0,7.0,94,0.00,,,0.18,,2013-04-10 14:33:00,
2013-04-10 10:42:00,33.0,31.0,30.11,NE,44,3.0,10.0,94,0.00,,,0.18,,2013-04-10 14:42:00,
2013-04-10 10:52:00,33.0,31.0,30.11,NE,44,3.0,10.0,94,0.00,,,0.18,,2013-04-10 14:52:00,
2013-04-10 11:02:00,33.0,31.0,30.10,NE,39,6.0,10.0,94,0.00,,,0.18,,2013-04-10 15:02:00,
2013-04-10 11:12:00,33.0,31.0,30.10,NE,39,6.0,10.0,94,0.00,,,0.18,,2013-04-10 15:12:00,
2013-04-10 11:23:00,33.0,32.0,30.09,NNE,28,4.0,10.0,95,0.01,,,0.19,,2013-04-10 15:23:00,
2013-04-10 11:33:00,33.0,31.0,30.08,NNE,32,5.0,10.0,94,0.01,,,0.19,,2013-04-10 15:33:00,
2013-04-10 11:42:00,33.0,31.0,30.08,NNE,32,5.0,10.0,94,0.01,,,0.19,,2013-04-10 15:42:00,
2013-04-10 11:52:00,34.0,32.0,30.06,NE,36,3.0,12.0,93,0.01,,,0.19,,2013-04-10 15:52:00,
2013-04-10 12:03:00,34.0,32.0,30.08,NE,44,4.0,10.0,92,0.02,,,0.20,,2013-04-10 16:03:00,
2013-04-10 12:13:00,34.0,32.0,30.08,NE,44,4.0,10.0,92,0.02,,,0.20,,2013-04-10 16:13:00,
2013-04-10 12:23:00,35.0,33.0,30.08,ENE,71,1.0,6.0,92,0.01,,,0.20,,2013-04-10 16:23:00,
2013-04-10 12:33:00,36.0,33.0,30.09,ENE,73,4.0,10.0,89,0.02,,,0.21,,2013-04-10 16:33:00,
2013-04-10 12:43:00,36.0,33.0,30.09,ENE,73,4.0,10.0,89,0.02,,,0.21,,2013-04-10 16:43:00,
2013-04-10 12:52:00,36.0,33.0,30.11,NNE,33,3.0,8.0,87,0.03,,,0.22,,2013-04-10 16:52:00,
2013-04-10 13:03:00,36.0,33.0,30.11,NNE,33,3.0,8.0,87,0.03,,,0.22,,2013-04-10 17:03:00,
2013-04-10 13:12:00,36.0,33.0,30.11,NNE,33,3.0,8.0,87,0.03,,,0.22,,2013-04-10 17:12:00,
2013-04-10 13:22:00,36.0,33.0,30.11,NNE,33,3.0,8.0,87,0.03,,,0.22,,2013-04-10 17:22:00,
2013-04-10 13:33:00,36.0,33.0,30.14,NNE,29,7.0,9.0,87,0.02,,,0.23,,2013-04-10 17:33:00,
2013-04-10 13:43:00,36.0,33.0,30.14,NNE,29,7.0,9.0,87,0.02,,,0.23,,2013-04-10 17:43:00,
2013-04-10 13:53:00,36.0,32.0,30.13,NNE,30,6.0,9.0,86,0.02,,,0.23,,2013-04-10 17:53:00,
2013-04-10 14:03:00,36.0,33.0,30.11,NE,55,5.0,9.0,87,0.02,,,0.24,,2013-04-10 18:03:00,
2013-04-10 14:12:00,36.0,33.0,30.11,NE,55,5.0,9.0,87,0.02,,,0.24,,2013-04-10 18:12:00,
2013-04-10 14:23:00,36.0,33.0,30.10,NE,37,7.0,11.0,87,0.02,,,0.24,,2013-04-10 18:23:00,
2013-04-10 14:33:00,37.0,33.0,30.10,NNE,32,7.0,12.0,86,0.02,,,0.25,,2013-04-10 18:33:00,
2013-04-10 14:42:00,37.0,33.0,30.10,NNE,32,7.0,12.0,86,0.02,,,0.25,,2013-04-10 18:42:00,
2013-04-10 14:52:00,37.0,33.0,30.11,NE,39,10.0,11.0,85,0.03,,,0.26,,2013-04-10 18:52:00,
2013-04-10 15:03:00,37.0,33.0,30.11,NE,48,2.0,8.0,84,0.02,,,0.26,,2013-04-10 19:03:00,
2013-04-10 15:12:00,37.0,33.0,30.11,NE,48,2.0,8.0,84,0.02,,,0.26,,2013-04-10 19:12:00,
2013-04-10 15:22:00,37.0,33.0,30.10,NNE,31,7.0,10.0,84,0.03,,,0.27,,2013-04-10 19:22:00,
2013-04-10 15:33:00,38.0,34.0,30.10,NNE,22,4.0,8.0,84,0.03,,,0.28,,2013-04-10 19:33:00,
2013-04-10 15:42:00,38.0,34.0,30.10,NNE,22,4.0,8.0,84,0.03,,,0.28,,2013-04-10 19:42:00,
2013-04-10 15:53:00,38.0,33.0,30.11,NNE,22,5.0,9.0,83,0.02,,,0.28,,2013-04-10 19:53:00,
2013-04-10 16:03:00,38.0,33.0,30.11,NNE,22,5.0,9.0,83,0.02,,,0.28,,2013-04-10 20:03:00,
2013-04-10 16:12:00,38.0,33.0,30.13,East,80,2.0,7.0,81,0.03,,,0.29,,2013-04-10 20:12:00,
2013-04-10 16:23:00,38.0,33.0,30.13,East,80,2.0,7.0,81,0.03,,,0.29,,2013-04-10 20:23:00,
2013-04-10 16:33:00,38.0,33.0,30.11,NNE,18,7.0,12.0,81,0.03,,,0.29,,2013-04-10 20:33:00,
2013-04-10 16:42:00,38.0,32.0,30.09,NE,39,10.0,14.0,80,0.02,,,0.29,,2013-04-10 20:42:00,
2013-04-10 16:52:00,38.0,32.0,30.09,NE,39,10.0,14.0,80,0.02,,,0.29,,2013-04-10 20:52:00,
2013-04-10 17:03:00,39.0,34.0,30.09,NNE,22,10.0,14.0,81,0.03,,,0.29,,2013-04-10 21:03:00,
2013-04-10 17:13:00,39.0,33.0,30.09,NE,44,7.0,14.0,79,0.02,,,0.29,,2013-04-10 21:13:00,
2013-04-10 17:22:00,39.0,33.0,30.09,NE,44,7.0,14.0,79,0.02,,,0.29,,2013-04-10 21:22:00,
2013-04-10 17:33:00,39.0,33.0,30.09,NE,35,6.0,14.0,78,0.03,,,0.30,,2013-04-10 21:33:00,
2013-04-10 17:43:00,39.0,33.0,30.09,NE,35,6.0,14.0,78,0.03,,,0.30,,2013-04-10 21:43:00,
2013-04-10 17:53:00,39.0,33.0,30.09,NNE,25,7.0,10.0,78,0.02,,,0.29,,2013-04-10 21:53:00,
2013-04-10 18:03:00,39.0,32.0,30.08,NNE,31,3.0,7.0,75,0.02,,,0.28,,2013-04-10 22:03:00,
2013-04-10 18:13:00,40.0,33.0,30.09,NNE,30,6.0,9.0,75,0.02,,,0.29,,2013-04-10 22:13:00,
2013-04-10 18:23:00,40.0,33.0,30.09,NNE,30,6.0,9.0,75,0.02,,,0.29,,2013-04-10 22:23:00,
2013-04-10 18:34:00,40.0,33.0,30.09,NNE,30,6.0,9.0,75,0.02,,,0.29,,2013-04-10 22:34:00,
2013-04-10 18:42:00,40.0,33.0,30.09,NNE,30,6.0,9.0,75,0.02,,,0.29,,2013-04-10 22:42:00,
2013-04-10 18:52:00,40.0,32.0,30.09,East,91,1.0,9.0,72,0.02,,,0.29,,2013-04-10 22:52:00,
2013-04-10 19:03:00,40.0,32.0,30.11,NE,41,4.0,8.0,73,0.02,,,0.28,,2013-04-10 23:03:00,
2013-04-10 19:12:00,40.0,32.0,30.10,ENE,58,0.0,6.0,72,0.01,,,0.27,,2013-04-10 23:12:00,
2013-04-10 19:22:00,40.0,32.0,30.10,ENE,58,0.0,6.0,72,0.01,,,0.27,,2013-04-10 23:22:00,
2013-04-10 19:33:00,40.0,32.0,30.10,ESE,103,0.0,3.0,72,0.02,,,0.28,,2013-04-10 23:33:00,
2013-04-10 19:42:00,40.0,32.0,30.10,ESE,103,0.0,3.0,72,0.02,,,0.28,,2013-04-10 23:42:00,
2013-04-10 19:53:00,40.0,32.0,30.08,East,82,4.0,4.0,72,0.01,,,0.27,,2013-04-10 23:53:00,
2013-04-10 20:02:00,39.0,31.0,30.08,East,85,2.0,3.0,73,0.01,,,0.27,,2013-04-11 00:02:00,
2013-04-10 20:13:00,39.0,31.0,30.09,NNE,31,2.0,6.0,74,0.02,,,0.27,,2013-04-11 00:13:00,
2013-04-10 20:22:00,39.0,31.0,30.09,NNE,31,2.0,6.0,74,0.02,,,0.27,,2013-04-11 00:22:00,
2013-04-10 20:32:00,39.0,31.0,30.09,NNE,31,0.0,3.0,74,0.02,,,0.27,,2013-04-11 00:32:00,
2013-04-10 20:42:00,39.0,32.0,30.09,NNE,12,0.0,4.0,75,0.01,,,0.26,,2013-04-11 00:42:00,
2013-04-10 20:53:00,39.0,32.0,30.09,NNE,12,0.0,4.0,75,0.01,,,0.26,,2013-04-11 00:53:00,
2013-04-10 21:02:00,38.0,31.0,30.08,NNE,12,0.0,0.0,77,0.01,,,0.26,,2013-04-11 01:02:00,
2013-04-10 21:12:00,37.0,31.0,30.08,NNE,12,0.0,0.0,79,0.01,,,0.25,,2013-04-11 01:12:00,
2013-04-10 21:22:00,37.0,31.0,30.08,NNE,12,0.0,0.0,79,0.01,,,0.25,,2013-04-11 01:22:00,
2013-04-10 21:32:00,37.0,31.0,30.09,NNE,12,0.0,0.0,80,0.00,,,0.25,,2013-04-11 01:32:00,
2013-04-10 21:42:00,37.0,31.0,30.08,NNE,12,0.0,1.0,80,0.00,,,0.24,,2013-04-11 01:42:00,
2013-04-10 21:52:00,37.0,31.0,30.08,NNE,12,0.0,1.0,80,0.00,,,0.24,,2013-04-11 01:52:00,
2013-04-10 22:03:00,36.0,31.0,30.08,NNE,12,0.0,0.0,83,0.00,,,0.24,,2013-04-11 02:03:00,
2013-04-10 22:12:00,37.0,31.0,30.07,NNE,28,3.0,6.0,79,0.00,,,0.23,,2013-04-11 02:12:00,
2013-04-10 22:22:00,37.0,31.0,30.07,NNE,28,3.0,6.0,79,0.00,,,0.23,,2013-04-11 02:22:00,
2013-04-10 22:32:00,37.0,30.0,30.07,NE,36,3.0,7.0,75,0.00,,,0.23,,2013-04-11 02:32:00,
2013-04-10 22:42:00,37.0,30.0,30.07,NE,36,3.0,7.0,75,0.00,,,0.23,,2013-04-11 02:42:00,
2013-04-10 22:53:00,37.0,30.0,30.07,NE,36,3.0,7.0,75,0.00,,,0.23,,2013-04-11 02:53:00,
2013-04-10 23:02:00,36.0,26.0,30.11,North,7,2.0,4.0,68,0.00,,,0.22,,2013-04-11 03:02:00,
2013-04-10 23:12:00,36.0,26.0,30.11,North,7,0.0,3.0,68,0.00,,,0.22,,2013-04-11 03:12:00,
2013-04-10 23:22:00,36.0,26.0,30.11,North,7,0.0,3.0,68,0.00,,,0.22,,2013-04-11 03:22:00,
2013-04-10 23:33:00,35.0,27.0,30.11,North,7,0.0,3.0,71,0.00,,,0.21,,2013-04-11 03:33:00,
2013-04-10 23:43:00,35.0,26.0,30.12,NNE,23,3.0,5.0,70,0.00,,,0.21,,2013-04-11 03:43:00,
2013-04-10 23:53:00,35.0,26.0,30.12,NNE,23,3.0,5.0,70,0.00,,,0.21,,2013-04-11 03:53:00,